Regional Weather Roundup
Issued by NWS Cleveland, OH

Home | Current Version | Previous Version | Text Only | Print | Product List | Glossary Off
Versions: 1 2 3 4 5 6 7 8 9 10 11 12 13 14 15 16 17 18 19 20 21 22 23 24 25 26 27 28 29 30 31 32 33 34 35 36 37 38 39 40 41 42 43 44 45 46 47 48 49 50

000
ASUS41 KCLE 231910
RWRCLE
OHIO REGIONAL WEATHER ROUNDUP
NATIONAL WEATHER SERVICE WILMINGTON, OH
200 PM EST FRI FEB 23 2018

NOTE: "FAIR" INDICATES FEW OR NO CLOUDS BELOW 12,000 FEET WITH NO
SIGNIFICANT WEATHER AND/OR OBSTRUCTIONS TO VISIBILITY.

OHZ001>008-015>018-024>027-034-035-043-044-232000-
   NORTHWEST OHIO

CITY           SKY/WX    TMP DP  RH WIND       PRES   REMARKS
DEFIANCE       CLOUDY    51  48  89 SW10G17   30.13R
FINDLAY        CLOUDY    61  53  75 W22G32    30.11F
TOLEDO EXPRESS CLOUDY    51  50  96 W17G26    30.11S
TOLEDO EXEC    PTSUNNY   53  49  86 W15       30.11F
LIMA           PTSUNNY   59  55  87 SW21G28   30.13F
$$

OHZ009>014-019>023-028>033-038-089-232000-
   NORTHEAST OHIO

CITY           SKY/WX    TMP DP  RH WIND       PRES   REMARKS
CLE-HOPKINS    CLOUDY    60  57  89 SW16G26   30.13S
CLE-LAKEFRONT  CLOUDY    59  54  83 SW18      30.09S
CUY CO. ARPT   CLOUDY    61  57  88 SW18      30.10F
LORAIN-ELYRIA  CLOUDY    58  52  80 W16G23    30.12R HAZE
ASHTABULA      CLOUDY    56  54  93 SW17G25   30.09F
AKRON-CANTON   LGT RAIN  59  55  87 SW15G22   30.14S FOG
WOOSTER        LGT RAIN  59  57  93 SW16G23   30.14F
MANSFIELD      LGT RAIN  59  58  96 SW17G24   30.14F FOG
YOUNGSTOWN     CLOUDY    58  55  90 SW16G23   30.12F
$$

OHZ042-051>053-060>062-070>072-077>081-232000-
  SOUTHWEST OHIO

CITY           SKY/WX    TMP DP  RH WIND       PRES   REMARKS
CINC-COVINGTON LGT RAIN  62  61  96 SW9       30.21S FOG
CINC-LUNKEN    CLOUDY    64  61  90 SW17G24   30.22S
HAMILTON       LGT RAIN  61  61 100 W7        30.20F FOG
DAYTON         LGT RAIN  58  57  97 W18       30.20S FOG
WRIGHT-PAT AFB CLOUDY    61  58  91 SW9       30.17F
DAYTON GENERAL LGT RAIN  62  60  93 SW12      30.18F FOG
WILMINGTON     CLOUDY    63  61  93 SW23G32   30.18F
$$

OHZ036-037-039>041-045>050-054>059-063>069-073>076-082>088-232000-
  CENTRAL AND SOUTHEAST OHIO

CITY           SKY/WX    TMP DP  RH WIND       PRES   REMARKS
COLUMBUS       LGT RAIN  62  60  93 SW16      30.19F
OSU AIRPORT    LGT RAIN  60  60 100 SW14      30.18F FOG
BOLTON FIELD   RAIN      61  61 100 W13G18    30.19F
RICKENBACK AFB CLOUDY    63  60  91 W17G26    30.18F
NEWARK         CLOUDY    64  59  83 W20G28    30.17F
MARION         CLOUDY    59  57  93 SW16G22   30.16F
LANCASTER      FAIR      64  59  83 SW17G28   30.19F
ZANESVILLE     CLOUDY    66  57  72 SW8       30.18F
NEW PHILLY     LGT RAIN  61  57  87 SW9G18    30.17F FOG
$$




USA.gov is the U.S. government's official web portal to all federal, state and local government web resources and services.